• In Netherlands
  • List of Countries
  • For 7 days
  • Water Temperature
  • Satellite Maps
  • Weather Map
  • Weather Widgets
  • user-avatar
    Login

    Hourly Weather Razgrad

    Today, 30 March, Thursday

    Time Temperature Precipitation Wind Pressure Humidity
    00:00 +11°C° 0 mm 1 mps 743 mmHg 70%
    01:00 +10°C° 0 mm 1 mps 743 mmHg 71%
    02:00 +10°C° 0 mm 1 mps 743 mmHg 72%
    03:00 +10°C° 0 mm 1 mps 743 mmHg 72%
    04:00 +10°C° 0 mm 1 mps 743 mmHg 72%
    05:00 +10°C° 0 mm 1 mps 742 mmHg 72%
    06:00 +11°C° 0 mm 1 mps 743 mmHg 68%
    07:00 +13°C° 0 mm 2 mps 743 mmHg 63%
    08:00 +14°C° 0 mm 2 mps 743 mmHg 59%
    09:00 +14°C° 0 mm 3 mps 743 mmHg 57%
    10:00 +17°C° 0 mm 3 mps 744 mmHg 56%
    11:00 +18°C° 0 mm 4 mps 744 mmHg 54%
    12:00 +18°C° 0.1 mm 4 mps 744 mmHg 55%
    13:00 +17°C° 0.1 mm 5 mps 744 mmHg 55%
    14:00 +19°C° 0.1 mm 5 mps 744 mmHg 55%
    15:00 +17°C° 0.4 mm 5 mps 744 mmHg 60%
    16:00 +16°C° 0.4 mm 5 mps 744 mmHg 64%
    17:00 +15°C° 0.4 mm 5 mps 745 mmHg 69%
    18:00 +14°C° 0.1 mm 4 mps 745 mmHg 73%
    19:00 +12°C° 0.1 mm 3 mps 746 mmHg 77%
    20:00 +11°C° 0.1 mm 3 mps 746 mmHg 81%
    21:00 +11°C° 0 mm 3 mps 747 mmHg 80%
    22:00 +10°C° 0 mm 3 mps 747 mmHg 79%
    23:00 +10°C° 0 mm 4 mps 748 mmHg 79%

    Tomorrow, 31 March, Friday

    Time Temperature Precipitation Wind Pressure Humidity
    00:00 +9°C° 0 mm 3 mps 748 mmHg 79%
    01:00 +8°C° 0 mm 3 mps 748 mmHg 80%
    02:00 +8°C° 0 mm 3 mps 749 mmHg 81%
    03:00 +7°C° 0 mm 3 mps 749 mmHg 84%
    04:00 +7°C° 0 mm 3 mps 749 mmHg 86%
    05:00 +5°C° 0 mm 3 mps 749 mmHg 89%
    06:00 +7°C° 0 mm 3 mps 750 mmHg 85%
    07:00 +7°C° 0 mm 3 mps 750 mmHg 80%
    08:00 +8°C° 0 mm 3 mps 750 mmHg 76%
    09:00 +8°C° 0 mm 4 mps 750 mmHg 69%
    10:00 +10°C° 0 mm 4 mps 751 mmHg 62%
    11:00 +11°C° 0 mm 4 mps 751 mmHg 54%
    12:00 +12°C° 0 mm 4 mps 750 mmHg 51%
    13:00 +12°C° 0 mm 5 mps 750 mmHg 48%
    14:00 +13°C° 0 mm 5 mps 750 mmHg 44%
    15:00 +12°C° 0 mm 4 mps 749 mmHg 45%
    16:00 +12°C° 0 mm 4 mps 749 mmHg 45%
    17:00 +12°C° 0 mm 3 mps 749 mmHg 45%
    18:00 +10°C° 0 mm 3 mps 749 mmHg 51%
    19:00 +8°C° 0 mm 2 mps 749 mmHg 57%
    20:00 +6°C° 0 mm 2 mps 749 mmHg 63%
    21:00 +7°C° 0 mm 1 mps 749 mmHg 67%
    22:00 +6°C° 0 mm 1 mps 749 mmHg 71%
    23:00 +5°C° 0 mm 1 mps 749 mmHg 75%

    Day after tomorrow, 1 April, Saturday

    Time Temperature Precipitation Wind Pressure Humidity
    00:00 +5°C° 0 mm 1 mps 749 mmHg 76%
    01:00 +4°C° 0 mm 1 mps 748 mmHg 77%
    02:00 +3°C° 0 mm 0 mps 748 mmHg 79%
    03:00 +2°C° 0 mm 0 mps 748 mmHg 79%
    04:00 +2°C° 0 mm 0 mps 747 mmHg 79%
    05:00 +2°C° 0 mm 0 mps 747 mmHg 79%
    06:00 +4°C° 0 mm 0 mps 747 mmHg 70%
    07:00 +6°C° 0 mm 0 mps 748 mmHg 61%
    08:00 +9°C° 0 mm 1 mps 748 mmHg 52%
    09:00 +10°C° 0 mm 1 mps 748 mmHg 47%
    10:00 +12°C° 0 mm 1 mps 748 mmHg 42%
    11:00 +14°C° 0 mm 2 mps 748 mmHg 37%
    12:00 +15°C° 0 mm 2 mps 748 mmHg 35%
    13:00 +15°C° 0 mm 2 mps 747 mmHg 32%
    14:00 +16°C° 0 mm 2 mps 747 mmHg 30%
    15:00 +16°C° 0 mm 2 mps 747 mmHg 33%
    16:00 +16°C° 0 mm 3 mps 746 mmHg 35%
    17:00 +14°C° 0 mm 3 mps 746 mmHg 37%
    18:00 +12°C° 0 mm 3 mps 746 mmHg 44%
    19:00 +10°C° 0 mm 2 mps 747 mmHg 51%
    20:00 +8°C° 0 mm 2 mps 747 mmHg 58%
    21:00 +7°C° 0 mm 2 mps 747 mmHg 61%
    22:00 +6°C° 0 mm 2 mps 747 mmHg 63%
    23:00 +6°C° 0 mm 2 mps 747 mmHg 66%

    2 April, Sunday

    Time Temperature Precipitation Wind Pressure Humidity
    00:00 +5°C° 0 mm 2 mps 747 mmHg 67%
    01:00 +5°C° 0 mm 2 mps 747 mmHg 67%
    02:00 +4°C° 0 mm 2 mps 747 mmHg 67%
    03:00 +4°C° 0 mm 2 mps 747 mmHg 65%
    04:00 +3°C° 0 mm 2 mps 747 mmHg 62%
    05:00 +3°C° 0 mm 2 mps 747 mmHg 60%
    06:00 +5°C° 0 mm 2 mps 747 mmHg 55%
    07:00 +6°C° 0 mm 2 mps 748 mmHg 50%
    08:00 +8°C° 0 mm 2 mps 748 mmHg 45%
    09:00 +10°C° 0 mm 2 mps 748 mmHg 39%
    10:00 +13°C° 0 mm 2 mps 748 mmHg 33%
    11:00 +14°C° 0 mm 3 mps 748 mmHg 27%
    12:00 +16°C° 0 mm 3 mps 748 mmHg 27%
    13:00 +17°C° 0 mm 3 mps 748 mmHg 27%
    14:00 +18°C° 0 mm 3 mps 747 mmHg 27%
    15:00 +17°C° 0 mm 3 mps 747 mmHg 31%
    16:00 +17°C° 0 mm 3 mps 747 mmHg 36%
    17:00 +15°C° 0 mm 4 mps 747 mmHg 40%
    18:00 +13°C° 0 mm 3 mps 747 mmHg 47%
    19:00 +11°C° 0 mm 3 mps 747 mmHg 53%
    20:00 +9°C° 0 mm 3 mps 747 mmHg 60%
    21:00 +8°C° 0 mm 3 mps 747 mmHg 61%
    22:00 +7°C° 0 mm 3 mps 747 mmHg 61%
    23:00 +7°C° 0 mm 2 mps 747 mmHg 62%

    3 April, Monday

    Time Temperature Precipitation Wind Pressure Humidity
    00:00 +6°C° 0 mm 2 mps 747 mmHg 62%
    01:00 +6°C° 0 mm 2 mps 747 mmHg 61%
    02:00 +6°C° 0 mm 2 mps 746 mmHg 61%
    03:00 +5°C° 0 mm 2 mps 746 mmHg 61%
    04:00 +5°C° 0 mm 2 mps 746 mmHg 62%
    05:00 +5°C° 0 mm 2 mps 746 mmHg 62%
    06:00 +7°C° 0 mm 2 mps 746 mmHg 59%
    07:00 +9°C° 0 mm 1 mps 746 mmHg 56%
    08:00 +11°C° 0 mm 1 mps 746 mmHg 52%
    09:00 +13°C° 0 mm 1 mps 746 mmHg 47%
    10:00 +15°C° 0 mm 1 mps 746 mmHg 42%
    11:00 +18°C° 0 mm 1 mps 745 mmHg 38%
    12:00 +19°C° 0 mm 1 mps 745 mmHg 36%
    13:00 +20°C° 0 mm 1 mps 745 mmHg 35%
    14:00 +21°C° 0 mm 1 mps 744 mmHg 34%
    15:00 +21°C° 0 mm 1 mps 744 mmHg 36%
    16:00 +21°C° 0 mm 1 mps 744 mmHg 38%
    17:00 +19°C° 0 mm 2 mps 743 mmHg 40%
    18:00 +17°C° 0 mm 2 mps 743 mmHg 48%
    19:00 +14°C° 0 mm 2 mps 743 mmHg 56%
    20:00 +12°C° 0 mm 2 mps 743 mmHg 64%
    21:00 +10°C° 0 mm 2 mps 743 mmHg 66%
    22:00 +10°C° 0 mm 2 mps 743 mmHg 69%
    23:00 +9°C° 0 mm 2 mps 743 mmHg 71%

    4 April, Tuesday

    Time Temperature Precipitation Wind Pressure Humidity
    00:00 +9°C° 0 mm 2 mps 742 mmHg 72%
    01:00 +9°C° 0 mm 2 mps 742 mmHg 73%
    02:00 +8°C° 0 mm 2 mps 742 mmHg 75%
    03:00 +9°C° 0 mm 1 mps 742 mmHg 76%
    04:00 +9°C° 0 mm 1 mps 741 mmHg 77%
    05:00 +8°C° 0 mm 1 mps 741 mmHg 78%
    06:00 +10°C° 0 mm 1 mps 741 mmHg 72%
    07:00 +12°C° 0 mm 1 mps 742 mmHg 66%
    08:00 +13°C° 0 mm 1 mps 742 mmHg 61%
    09:00 +15°C° 0 mm 2 mps 742 mmHg 57%
    10:00 +16°C° 0 mm 2 mps 742 mmHg 53%
    11:00 +17°C° 0 mm 2 mps 742 mmHg 49%
    12:00 +18°C° 0 mm 3 mps 742 mmHg 47%
    13:00 +18°C° 0 mm 3 mps 741 mmHg 46%
    14:00 +18°C° 0 mm 3 mps 741 mmHg 45%
    15:00 +18°C° 0 mm 3 mps 741 mmHg 47%
    16:00 +18°C° 0 mm 3 mps 741 mmHg 49%
    17:00 +18°C° 0 mm 3 mps 741 mmHg 50%
    18:00 +16°C° 0.1 mm 3 mps 741 mmHg 58%
    19:00 +14°C° 0.1 mm 3 mps 741 mmHg 66%
    20:00 +12°C° 0.1 mm 3 mps 742 mmHg 74%
    21:00 +11°C° 0.2 mm 3 mps 742 mmHg 77%
    22:00 +12°C° 0.2 mm 2 mps 742 mmHg 81%
    23:00 +10°C° 0.2 mm 2 mps 742 mmHg 85%
    Show more